When you browse on this site, cookies collect data to enhance your experience and personalize the content and advertising you see.
Visit our Privacy Policy to learn more. By continuing to use the site, you agree to this use of cookies and data.
  • In Hungary
  • List of Countries
  • For 7 days
  • Water Temperature
  • Satellite Maps
  • Weather Map
  • News
  • Weather Widgets
  • user-avatar
    Login

    Hourly Weather Santa Cruz Cuauhtenco

    Today, 24 April, Wednesday

    Time Temperature Precipitation Wind Pressure Humidity
    00:00 +12°C° 0 mm 1 mps 542 mmHg 62%
    01:00 +12°C° 0 mm 1 mps 542 mmHg 63%
    02:00 +12°C° 0 mm 1 mps 542 mmHg 64%
    03:00 +11°C° 0 mm 1 mps 542 mmHg 64%
    04:00 +11°C° 0 mm 1 mps 542 mmHg 65%
    05:00 +10°C° 0 mm 1 mps 542 mmHg 59%
    06:00 +13°C° 0 mm 1 mps 543 mmHg 51%
    07:00 +15°C° 0 mm 2 mps 544 mmHg 44%
    08:00 +18°C° 0 mm 2 mps 546 mmHg 36%
    09:00 +19°C° 0 mm 3 mps 546 mmHg 32%
    10:00 +21°C° 0 mm 3 mps 547 mmHg 28%
    11:00 +22°C° 0 mm 4 mps 548 mmHg 24%
    12:00 +23°C° 0 mm 4 mps 547 mmHg 23%
    13:00 +23°C° 0 mm 5 mps 547 mmHg 22%
    14:00 +23°C° 0 mm 5 mps 546 mmHg 20%
    15:00 +22°C° 0 mm 5 mps 545 mmHg 22%
    16:00 +21°C° 0 mm 4 mps 545 mmHg 23%
    17:00 +20°C° 0 mm 4 mps 544 mmHg 24%
    18:00 +18°C° 0 mm 3 mps 543 mmHg 29%
    19:00 +16°C° 0 mm 2 mps 543 mmHg 34%
    20:00 +14°C° 0 mm 1 mps 542 mmHg 38%
    21:00 +13°C° 0 mm 1 mps 542 mmHg 40%
    22:00 +13°C° 0 mm 1 mps 542 mmHg 41%
    23:00 +12°C° 0 mm 1 mps 542 mmHg 43%

    Tomorrow, 25 April, Thursday

    Time Temperature Precipitation Wind Pressure Humidity
    00:00 +12°C° 0 mm 1 mps 542 mmHg 43%
    01:00 +11°C° 0 mm 1 mps 542 mmHg 43%
    02:00 +11°C° 0 mm 1 mps 541 mmHg 43%
    03:00 +10°C° 0 mm 1 mps 541 mmHg 42%
    04:00 +10°C° 0 mm 1 mps 541 mmHg 42%
    05:00 +9°C° 0 mm 1 mps 541 mmHg 41%
    06:00 +13°C° 0 mm 1 mps 543 mmHg 34%
    07:00 +16°C° 0 mm 1 mps 545 mmHg 27%
    08:00 +20°C° 0 mm 1 mps 547 mmHg 20%
    09:00 +22°C° 0 mm 1 mps 548 mmHg 18%
    10:00 +23°C° 0 mm 2 mps 549 mmHg 16%
    11:00 +25°C° 0 mm 2 mps 550 mmHg 13%
    12:00 +25°C° 0 mm 2 mps 549 mmHg 14%
    13:00 +25°C° 0 mm 3 mps 549 mmHg 14%
    14:00 +25°C° 0 mm 3 mps 548 mmHg 14%
    15:00 +24°C° 0 mm 3 mps 547 mmHg 16%
    16:00 +22°C° 0 mm 3 mps 546 mmHg 18%
    17:00 +21°C° 0 mm 3 mps 546 mmHg 20%
    18:00 +19°C° 0 mm 2 mps 545 mmHg 23%
    19:00 +17°C° 0 mm 2 mps 545 mmHg 25%
    20:00 +15°C° 0 mm 1 mps 544 mmHg 28%
    21:00 +14°C° 0 mm 1 mps 545 mmHg 32%
    22:00 +14°C° 0 mm 1 mps 545 mmHg 36%
    23:00 +14°C° 0 mm 1 mps 545 mmHg 41%

    Day after tomorrow, 26 April, Friday

    Time Temperature Precipitation Wind Pressure Humidity
    00:00 +13°C° 0 mm 1 mps 545 mmHg 47%
    01:00 +13°C° 0 mm 1 mps 544 mmHg 54%
    02:00 +13°C° 0 mm 1 mps 544 mmHg 60%
    03:00 +12°C° 0 mm 1 mps 544 mmHg 64%
    04:00 +12°C° 0 mm 1 mps 544 mmHg 68%
    05:00 +11°C° 0 mm 1 mps 544 mmHg 72%
    06:00 +14°C° 0 mm 1 mps 545 mmHg 63%
    07:00 +16°C° 0 mm 1 mps 547 mmHg 55%
    08:00 +18°C° 0 mm 2 mps 548 mmHg 46%
    09:00 +20°C° 0 mm 2 mps 549 mmHg 40%
    10:00 +23°C° 0 mm 2 mps 550 mmHg 33%
    11:00 +25°C° 0 mm 2 mps 550 mmHg 26%
    12:00 +24°C° 0.1 mm 2 mps 549 mmHg 27%
    13:00 +23°C° 0.1 mm 2 mps 548 mmHg 29%
    14:00 +21°C° 0.1 mm 2 mps 547 mmHg 30%
    15:00 +21°C° 0.1 mm 2 mps 546 mmHg 31%
    16:00 +20°C° 0.1 mm 2 mps 546 mmHg 31%
    17:00 +21°C° 0.1 mm 1 mps 546 mmHg 32%
    18:00 +19°C° 0 mm 1 mps 545 mmHg 40%
    19:00 +16°C° 0 mm 1 mps 545 mmHg 47%
    20:00 +14°C° 0 mm 1 mps 545 mmHg 55%
    21:00 +13°C° 0 mm 1 mps 545 mmHg 61%
    22:00 +13°C° 0 mm 1 mps 545 mmHg 67%
    23:00 +12°C° 0 mm 1 mps 545 mmHg 73%

    27 April, Saturday

    Time Temperature Precipitation Wind Pressure Humidity
    00:00 +12°C° 0 mm 1 mps 544 mmHg 74%
    01:00 +11°C° 0 mm 1 mps 543 mmHg 74%
    02:00 +11°C° 0 mm 1 mps 543 mmHg 74%
    03:00 +11°C° 0 mm 1 mps 543 mmHg 71%
    04:00 +10°C° 0 mm 1 mps 543 mmHg 68%
    05:00 +10°C° 0 mm 1 mps 542 mmHg 65%
    06:00 +13°C° 0 mm 1 mps 544 mmHg 53%
    07:00 +16°C° 0 mm 1 mps 546 mmHg 40%
    08:00 +20°C° 0 mm 1 mps 548 mmHg 27%
    09:00 +22°C° 0 mm 1 mps 549 mmHg 24%
    10:00 +24°C° 0 mm 1 mps 550 mmHg 21%
    11:00 +26°C° 0 mm 1 mps 550 mmHg 19%
    12:00 +26°C° 0 mm 2 mps 549 mmHg 19%
    13:00 +26°C° 0 mm 2 mps 548 mmHg 19%
    14:00 +25°C° 0 mm 2 mps 547 mmHg 19%
    15:00 +24°C° 0 mm 2 mps 546 mmHg 21%
    16:00 +23°C° 0 mm 2 mps 546 mmHg 22%
    17:00 +21°C° 0 mm 2 mps 545 mmHg 24%
    18:00 +20°C° 0 mm 1 mps 545 mmHg 28%
    19:00 +18°C° 0 mm 1 mps 545 mmHg 31%
    20:00 +16°C° 0 mm 1 mps 544 mmHg 35%
    21:00 +15°C° 0 mm 1 mps 544 mmHg 36%
    22:00 +15°C° 0 mm 1 mps 544 mmHg 37%
    23:00 +13°C° 0 mm 0 mps 544 mmHg 38%

    28 April, Sunday

    Time Temperature Precipitation Wind Pressure Humidity
    00:00 +14°C° 0 mm 1 mps 544 mmHg 40%
    01:00 +13°C° 0 mm 1 mps 543 mmHg 41%
    02:00 +12°C° 0 mm 1 mps 543 mmHg 43%
    03:00 +12°C° 0 mm 1 mps 543 mmHg 44%
    04:00 +12°C° 0 mm 1 mps 543 mmHg 45%
    05:00 +11°C° 0 mm 1 mps 543 mmHg 47%
    06:00 +14°C° 0 mm 1 mps 545 mmHg 41%
    07:00 +18°C° 0 mm 1 mps 547 mmHg 35%
    08:00 +21°C° 0 mm 1 mps 548 mmHg 30%
    09:00 +23°C° 0 mm 1 mps 549 mmHg 27%
    10:00 +25°C° 0 mm 1 mps 550 mmHg 24%
    11:00 +27°C° 0 mm 1 mps 551 mmHg 22%
    12:00 +26°C° 0 mm 1 mps 549 mmHg 24%
    13:00 +24°C° 0 mm 1 mps 547 mmHg 27%
    14:00 +23°C° 0 mm 2 mps 545 mmHg 29%
    15:00 +22°C° 0 mm 1 mps 545 mmHg 31%
    16:00 +21°C° 0 mm 1 mps 545 mmHg 33%
    17:00 +21°C° 0 mm 1 mps 545 mmHg 35%
    18:00 +19°C° 0 mm 1 mps 544 mmHg 39%
    19:00 +18°C° 0 mm 1 mps 544 mmHg 43%
    20:00 +14°C° 0 mm 0 mps 544 mmHg 47%
    21:00 +15°C° 0 mm 1 mps 544 mmHg 48%
    22:00 +14°C° 0 mm 1 mps 544 mmHg 49%
    23:00 +14°C° 0 mm 1 mps 544 mmHg 50%

    29 April, Monday

    Time Temperature Precipitation Wind Pressure Humidity
    00:00 +13°C° 0 mm 1 mps 543 mmHg 53%
    01:00 +13°C° 0 mm 1 mps 543 mmHg 57%
    02:00 +12°C° 0 mm 1 mps 542 mmHg 61%
    03:00 +12°C° 0 mm 1 mps 542 mmHg 62%
    04:00 +11°C° 0 mm 1 mps 542 mmHg 64%
    05:00 +11°C° 0 mm 1 mps 542 mmHg 66%
    06:00 +14°C° 0 mm 1 mps 545 mmHg 55%
    07:00 +19°C° 0 mm 1 mps 547 mmHg 44%
    08:00 +22°C° 0 mm 1 mps 549 mmHg 33%
    09:00 +24°C° 0 mm 1 mps 549 mmHg 30%
    10:00 +25°C° 0 mm 1 mps 550 mmHg 27%
    11:00 +27°C° 0 mm 1 mps 550 mmHg 24%
    12:00 +25°C° 0.1 mm 2 mps 549 mmHg 27%
    13:00 +24°C° 0.1 mm 2 mps 547 mmHg 30%
    14:00 +23°C° 0.1 mm 2 mps 545 mmHg 33%
    15:00 +21°C° 0.1 mm 2 mps 545 mmHg 35%
    16:00 +21°C° 0.1 mm 2 mps 545 mmHg 37%
    17:00 +21°C° 0.1 mm 1 mps 545 mmHg 39%
    18:00 +20°C° 0.2 mm 1 mps 545 mmHg 42%
    19:00 +19°C° 0.2 mm 1 mps 545 mmHg 45%
    20:00 +16°C° 0.2 mm 0 mps 545 mmHg 48%
    21:00 +16°C° 0.1 mm 1 mps 545 mmHg 51%
    22:00 +15°C° 0.1 mm 1 mps 544 mmHg 54%
    23:00 +14°C° 0.1 mm 1 mps 544 mmHg 56%
    Show more